Snowfall_Accumulation
0.0 0.0 0.0 0.0 0.0 0.0 0.0 0.0 0.0 0.0 0.0 0.0 0.0 0.0 0.0 0.0 0.0 0.0 0.0 0.0 0.0 0.0 0.0 0.0 0.0 0.0 0.0
0.0 0.0 0.0 0.0 0.0 0.0 0.0 0.0 0.0 0.0 0.0 0.0 0.0 0.0 0.0 0.0 0.0 0.0 0.0 0.0 0.0 0.0 0.0 0.0 0.0 0.0 0.0
0.0 0.0 0.0 0.0 0.0 0.0 0.0 0.0 0.0 0.0 0.0 0.0 0.0 0.0 0.0 0.0 0.0 0.0 0.0 0.0 0.0 0.0 0.0 0.0 0.0 0.0 0.0
0.0 0.6 0.0 0.1 0.2 0.1 0.0 0.0 0.0 0.0 0.0 0.0 0.0 0.0 0.0 0.0 0.0 0.0 0.0 0.0 0.0 0.0 0.0 0.0 0.0 0.0 0.0
0.8 1.2 1.4 0.0 0.0 0.0 0.0 0.0 0.0 0.0 0.0 0.0 0.0 0.0 0.0 0.0 0.0 0.0 0.0 0.0 0.0 0.0 0.0 0.0 0.0 0.0 0.0
4.3 0.5 0.0 0.0 0.0 0.0 0.7 1.0 1.0 0.0 0.1 0.1 0.0 0.0 0.0 0.0 0.0 0.0 0.0 0.0 0.0 0.0 0.0 0.0 0.0 0.0 0.0
0.2 0.1 0.2 0.0 1.3 2.2 1.2 1.9 1.5 0.0 0.1 0.3 0.0 0.0 0.0 0.0 0.0 0.0 0.0 0.0 0.0 0.0 0.0 0.0 0.0 0.0 0.0
0.0 0.1 0.3 0.1 0.2 0.9 2.2 1.4 0.2 0.0 0.1 1.9 0.0 0.1 0.0 0.0 0.0 0.0 0.0 0.0 0.0 0.0 0.0 0.0 0.0 0.0 0.0
0.1 0.0 0.0 0.0 0.0 1.6 2.7 2.8 2.0 0.2 0.0 0.5 0.2 0.2 0.1 0.0 0.0 0.0 0.0 0.0 0.0 0.0 0.0 0.0 0.0 0.0 0.0
0.0 0.0 0.0 0.0 0.0 0.2 4.7 9.9 4.6 3.0 0.0 2.9 1.9 1.0 3.6 0.0 0.0 0.0 0.0 0.0 0.0 0.0 0.0 0.0 0.0 0.0 0.1
0.0 0.0 0.0 0.0 0.1 0.3 2.0 7.8 10.9 6.3 0.1 4.3 5.9 1.3 3.3 1.3 0.0 0.0 0.0 0.0 0.0 0.0 0.0 0.0 0.0 0.0 0.2
0.2 0.2 0.2 0.3 0.2 0.2 0.3 1.5 3.1 7.8 2.8 3.7 9.4 3.8 5.1 3.0 1.4 1.7 0.0 1.6 1.3 0.8 0.6 0.3 0.1 0.0 0.0
1.0 0.5 0.4 0.5 0.5 0.6 0.1 0.3 1.1 2.0 3.1 3.4 6.3 5.1 5.1 4.5 3.4 3.6 6.0 5.2 3.8 5.6 2.9 1.0 0.9 0.2 0.1
3.1 1.1 0.5 0.7 1.0 1.2 3.6 2.6 3.8 2.4 1.9 3.2 5.4 6.1 4.6 3.6 5.8 5.7 6.0 10.4 8.0 7.2 6.3 2.9 0.7 0.2 0.0
2.2 1.9 0.8 1.1 1.0 1.9 4.6 4.6 5.1 4.6 3.4 2.9 3.4 3.8 3.9 5.3 6.3 6.7 7.5 7.5 8.0 10.7 8.5 4.8 4.3 1.1 0.7
2.1 2.2 3.4 3.2 3.6 2.4 3.2 4.5 5.3 4.5 4.7 4.3 4.5 3.4 3.5 3.0 4.9 8.9 7.4 7.8 8.9 9.4 8.0 3.5 5.2 2.7 0.1
3.7 4.3 4.2 3.8 3.5 3.8 3.4 3.9 3.8 3.6 2.3 1.8 3.1 4.0 4.1 3.5 3.4 4.1 7.6 6.9 6.0 6.3 5.6 3.1 4.2 3.6 0.3